Regional Weather Roundup
Issued by NWS Northern Indiana

Home | Current Version | Previous Version | Graphics & Text | Print | Product List | Glossary On
Versions: 1 2 3 4 5 6 7 8 9 10 11 12 13 14 15 16 17 18 19 20 21 22 23 24 25 26 27 28 29 30 31 32 33 34 35 36 37 38 39 40 41 42 43 44 45 46 47 48 49 50
069
ASUS43 KIWX 171300
RWRIWX

KIWX WEATHER ROUNDUP
NATIONAL WEATHER SERVICE NORTHERN INDIANA
900 AM EDT TUE OCT 17 2017

NOTE: "FAIR" INDICATES FEW OR NO CLOUDS BELOW 12,000 FEET WITH NO
SIGNIFICANT WEATHER AND/OR OBSTRUCTIONS TO VISIBILITY.

* THESE STATIONS ARE NOT UNDER NWS QUALITY CONTROL. THEY ALSO MAY NOT
  REPORT WEATHER SUCH AS PRECIPITATION OR FOG.

INZ001>027-171400-
NORTHERN INDIANA

CITY           SKY/WX    TMP DP  RH WIND       PRES   REMARKS
GARY*          PTCLDY    50  37  62 SW9       30.24S
MICHIGAN CITY* CLEAR     46  37  71 S10       30.24S
SOUTH BEND     CLEAR     46  39  76 SW14      30.25S
ELKHART*       SUNNY     46  39  76 SW9       30.25S
GOSHEN         SUNNY     46  38  73 SW14      30.26S
MONTICELLO*    CLEAR     46  38  74 SW8       30.30R
FORT WAYNE     MOSUNNY   46  39  76 SW10      30.30S

$$
INZ028>050-171400-
CENTRAL INDIANA

CITY           SKY/WX    TMP DP  RH WIND       PRES   REMARKS
LAFAYETTE      CLEAR     45  40  82 SW5       30.31F
KOKOMO*        SUNNY     50  38  63 SW10      30.32S
MUNCIE*        SUNNY     49  37  63 SW7       30.33S
INDIANAPOLIS   MOSUNNY   46  39  76 SW3       30.36R

$$
MIZ043>046-050>051-056>058-064>065-071>073-077>080-171400-
SOUTHWEST LOWER MICHIGAN

CITY           SKY/WX    TMP DP  RH WIND       PRES   REMARKS
BATTLE CREEK   SUNNY     47  39  74 SW13      30.21S
BENTON HARBOR  CLEAR     48  38  68 S9        30.20F
COLDWATER*     SUNNY     47  38  71 SW12G17   30.23S
HILLSDALE*     SUNNY     45  37  76 SW6       30.23S
HOLLAND        CLEAR     53  46  77 SW13      30.16S
GRAND RAPIDS   PTCLDY    50  41  71 S12       30.15F
KALAMAZOO      SUNNY     47  38  71 S10       30.22R
STURGIS*       SUNNY     45  40  83 SW7       30.24R
THREE RIVERS*  FAIR      46  41  82 SW10      30.23S

$$
OHZ001>008-015>018-024>025-171400-
NORTHWEST OHIO

CITY           SKY/WX    TMP DP  RH WIND       PRES   REMARKS
DEFIANCE       SUNNY     46  38  73 SW8       30.29R
FINDLAY        SUNNY     48  38  68 SW10      30.30R
TOLEDO EXPRESS SUNNY     47  40  76 SW12      30.27S
TOLEDO METCALF SUNNY     47  39  74 SW12      30.28S
LIMA           SUNNY     47  38  71 SW9       30.32R

$$
AND FOR LAKE MICHIGAN COASTAL AND OPEN LAKE BUOY OBSERVATIONS

STATION/POSITION TEMP    WIND        PRES    VSBY  WAVE
                 AIR SEA DIR/SP/G                  HT/PER
                 (F)     (DEG/KT/KT) (MB)    (MI)  (FT/S)
CALUMET HARBOR    51     200/ 10/ 14 1022.4S
MICHIGAN CITY     49     180/ 13/ 16   N/A
BURNS HARBOR      49     190/ 15/ 18 1023.7S
SAINT JOSEPH      49     170/  7/ 15 1022.7
SOUTH LAKE BUOY   60 62  250/ 21/ 27 1020.3          5/ 5
4 MI NW BRIDGMAN  54 56  210/ 16/ 21 1023.7S         4/ 4
MICHIGAN CITY     53 57  210/ 16/ 21   N/A           3/ 4

$$
&&




USA.gov is the U.S. government's official web portal to all federal, state and local government web resources and services.